Woodward, OK

3:26 PM CDT on March 29, 2017 (GMT -0500)
West Woodward

Weather History for KWWR - August, 2014

Change the Weather History Date:

Friday, August 15, 2014

  Actual Average (KGAG) Record (KGAG)
Temperature  
Mean Temperature 86 °F -  
Max Temperature 98 °F 92 °F 107 °F (1956)
Min Temperature 73 °F 66 °F 55 °F (1992)
Cooling Degree Days 20    
Growing Degree Days 36 (Base 50)    
Moisture  
Dew Point 58 °F    
Average Humidity 45    
Maximum Humidity 78    
Minimum Humidity 22    
Precipitation  
Precipitation 0.01 in - - ()
Sea Level Pressure  
Sea Level Pressure 29.95 in    
Wind  
Wind Speed 18 mph (SSW)    
Max Wind Speed 25 mph    
Max Gust Speed 34 mph    
Visibility 10 miles    
Events Rain , Thunderstorm    
Averages and records for this station are not official NWS values.
T = Trace of Precipitation, MM = Missing Value Source: NWS Daily Summary

Daily Weather History Graph

Daily Weather History Graph

Search for Another Location

Airport or City:

Trip Planner

Search our weather history database for the weather conditions in past years. The results will help you decide how hot, cold, wet, or windy it might be!

Date:

Astronomy

Aug. 15, 2014 Rise Set
Actual Time 6:55 AM CDT 8:28 PM CDT
Civil Twilight 6:28 AM CDT 8:55 PM CDT
Nautical Twilight 5:55 AM CDT 9:28 PM CDT
Astronomical Twilight 5:20 AM CDT 10:03 PM CDT
Moon 11:43 PM CDT (8/15) 12:29 PM CDT (8/15)
Length of Visible Light 14h 27m
Length of Day
13h 32m
Waning Gibbous, 69% of the Moon is Illuminated
Aug 15
Waning Gibbous
Aug 17
Last Quarter
Aug 25
New
Sep 2
First Quarter
Sep 8
Full

Hourly Weather History & Observations

Time (CDT) Temp. Heat Index Dew Point Humidity Pressure Visibility Wind Dir Wind Speed Gust Speed Precip Events Conditions
12:15 AM 82.4 °F 81.7 °F 55.4 °F 39% 30.00 in 10.0 mi SSE 17.3 mph 25.3 mph N/A   Clear
12:35 AM 82.4 °F 81.7 °F 55.4 °F 39% 29.99 in 10.0 mi South 17.3 mph 25.3 mph N/A   Clear
12:55 AM 82.4 °F 82.0 °F 57.2 °F 42% 29.99 in 10.0 mi South 18.4 mph 24.2 mph N/A   Clear
1:15 AM 80.6 °F 80.8 °F 57.2 °F 45% 29.99 in 10.0 mi South 18.4 mph 25.3 mph N/A   Clear
1:35 AM 80.6 °F 80.8 °F 57.2 °F 45% 29.98 in 10.0 mi South 19.6 mph 24.2 mph N/A   Clear
1:55 AM 80.6 °F 80.8 °F 57.2 °F 45% 29.99 in 10.0 mi South 19.6 mph 29.9 mph N/A   Clear
2:15 AM 80.6 °F 80.8 °F 57.2 °F 45% 29.99 in 10.0 mi South 17.3 mph 26.5 mph N/A   Clear
2:35 AM 80.6 °F 80.8 °F 57.2 °F 45% 29.99 in 10.0 mi South 17.3 mph 27.6 mph N/A   Clear
2:55 AM 78.8 °F - 57.2 °F 47% 29.98 in 10.0 mi South 20.7 mph 26.5 mph N/A   Scattered Clouds
3:15 AM 78.8 °F - 57.2 °F 47% 29.98 in 10.0 mi South 21.9 mph 28.8 mph N/A   Mostly Cloudy
3:35 AM 78.8 °F - 57.2 °F 47% 29.98 in 10.0 mi South 19.6 mph 27.6 mph N/A   Scattered Clouds
3:55 AM 78.8 °F - 57.2 °F 47% 29.97 in 10.0 mi South 18.4 mph 28.8 mph N/A   Scattered Clouds
4:15 AM 78.8 °F - 57.2 °F 47% 29.97 in 10.0 mi South 20.7 mph 28.8 mph N/A   Mostly Cloudy
4:35 AM 78.8 °F - 57.2 °F 47% 29.97 in 10.0 mi South 19.6 mph 27.6 mph N/A   Scattered Clouds
4:55 AM 78.8 °F - 57.2 °F 47% 29.97 in 10.0 mi South 20.7 mph 27.6 mph N/A   Scattered Clouds
5:35 AM 78.8 °F - 57.2 °F 47% 29.97 in 10.0 mi South 16.1 mph 29.9 mph N/A   Mostly Cloudy
6:15 AM 78.8 °F - 57.2 °F 47% 29.97 in 10.0 mi SSW 21.9 mph 26.5 mph N/A   Mostly Cloudy
6:35 AM 78.8 °F - 57.2 °F 47% 29.98 in 10.0 mi SSW 18.4 mph 26.5 mph N/A   Overcast
6:55 AM 78.8 °F - 57.2 °F 47% 29.98 in 10.0 mi South 19.6 mph 29.9 mph N/A   Scattered Clouds
7:15 AM 78.8 °F - 57.2 °F 47% 29.98 in 10.0 mi South 20.7 mph 27.6 mph N/A   Scattered Clouds
7:35 AM 78.8 °F - 57.2 °F 47% 29.98 in 10.0 mi South 19.6 mph 27.6 mph N/A   Mostly Cloudy
7:55 AM 78.8 °F - 57.2 °F 47% 29.98 in 10.0 mi South 20.7 mph 29.9 mph N/A   Scattered Clouds
8:15 AM 80.6 °F 80.8 °F 57.2 °F 45% 29.98 in 10.0 mi SSW 21.9 mph 27.6 mph N/A   Clear
8:35 AM 80.6 °F 80.8 °F 57.2 °F 45% 29.98 in 10.0 mi SSW 20.7 mph 26.5 mph N/A   Clear
8:55 AM 82.4 °F 82.0 °F 57.2 °F 42% 29.98 in 10.0 mi South 24.2 mph 32.2 mph N/A   Clear
9:15 AM 82.4 °F 82.0 °F 57.2 °F 42% 29.99 in 10.0 mi SSW 21.9 mph 31.1 mph N/A   Clear
9:35 AM 86.0 °F 84.9 °F 57.2 °F 37% 29.98 in 10.0 mi South 25.3 mph 32.2 mph N/A   Clear
9:55 AM 86.0 °F 84.5 °F 55.4 °F 35% 29.98 in 10.0 mi South 25.3 mph 34.5 mph N/A   Clear
10:15 AM 84.2 °F 83.0 °F 55.4 °F 37% 29.98 in 10.0 mi South 21.9 mph 32.2 mph N/A   Clear
10:35 AM 84.2 °F 83.0 °F 55.4 °F 37% 29.99 in 10.0 mi SSW 21.9 mph 31.1 mph N/A   Clear
10:55 AM 86.0 °F 84.5 °F 55.4 °F 35% 29.99 in 10.0 mi SSW 20.7 mph 24.2 mph N/A   Clear
11:15 AM 87.8 °F 86.1 °F 55.4 °F 33% 29.99 in 10.0 mi SSW 19.6 mph 26.5 mph N/A   Clear
11:35 AM 87.8 °F 86.1 °F 55.4 °F 33% 29.99 in 10.0 mi SSW 17.3 mph 24.2 mph N/A   Clear
12:15 PM 89.6 °F 87.7 °F 55.4 °F 31% 29.98 in 10.0 mi SSW 18.4 mph 25.3 mph N/A   Clear
12:35 PM 91.4 °F 89.4 °F 55.4 °F 29% 29.97 in 10.0 mi SSW 17.3 mph 28.8 mph N/A   Clear
12:55 PM 91.4 °F 89.4 °F 55.4 °F 29% 29.96 in 10.0 mi SSW 18.4 mph 25.3 mph N/A   Clear
1:15 PM 95.0 °F 93.7 °F 57.2 °F 28% 29.95 in 10.0 mi SSW 18.4 mph 23.0 mph N/A   Clear
1:35 PM 93.2 °F 91.3 °F 55.4 °F 28% 29.95 in 10.0 mi SW 18.4 mph 24.2 mph N/A   Clear
1:55 PM 93.2 °F 90.8 °F 53.6 °F 26% 29.94 in 10.0 mi South 16.1 mph - N/A   Clear
2:15 PM 95.0 °F 92.7 °F 53.6 °F 25% 29.93 in 10.0 mi SSW 18.4 mph 28.8 mph N/A   Clear
2:35 PM 96.8 °F - 51.8 °F 22% 29.93 in 10.0 mi SSW 19.6 mph 27.6 mph N/A Thunderstorm Clear
2:55 PM 96.8 °F 94.4 °F 53.6 °F 23% 29.92 in 10.0 mi SW 15.0 mph 25.3 mph N/A   Clear
3:15 PM 96.8 °F 94.4 °F 53.6 °F 23% 29.92 in 10.0 mi SSW 18.4 mph 26.5 mph N/A   Clear
3:35 PM 95.0 °F 92.7 °F 53.6 °F 25% 29.91 in 10.0 mi SSW 18.4 mph 24.2 mph N/A Thunderstorm Clear
3:55 PM 98.6 °F 96.4 °F 53.6 °F 22% 29.90 in 10.0 mi South 15.0 mph 27.6 mph N/A   Clear
4:15 PM 95.0 °F 92.7 °F 53.6 °F 25% 29.88 in 10.0 mi SSW 18.4 mph 25.3 mph N/A   Mostly Cloudy
4:35 PM 98.6 °F 96.4 °F 53.6 °F 22% 29.88 in 10.0 mi South 19.6 mph 25.3 mph N/A   Scattered Clouds
4:55 PM 96.8 °F 94.4 °F 53.6 °F 23% 29.87 in 10.0 mi South 13.8 mph 24.2 mph N/A   Scattered Clouds
5:15 PM 95.0 °F 92.7 °F 53.6 °F 25% 29.88 in 10.0 mi South 17.3 mph 20.7 mph N/A Thunderstorm Scattered Clouds
5:35 PM 93.2 °F 90.8 °F 53.6 °F 26% 29.88 in 10.0 mi SSW 13.8 mph - N/A   Scattered Clouds
5:55 PM 86.0 °F 86.1 °F 60.8 °F 43% 29.92 in 10.0 mi North 12.7 mph 29.9 mph N/A   Mostly Cloudy
6:15 PM 78.8 °F - 68.0 °F 69% 29.92 in 10.0 mi NNW 10.4 mph - N/A Rain Light Rain
6:35 PM 77.0 °F - 68.0 °F 74% 29.92 in 10.0 mi Calm Calm - N/A Rain Light Rain
6:55 PM 77.0 °F - 69.8 °F 78% 29.92 in 10.0 mi South 8.1 mph - 0.01 in Rain Light Rain
7:15 PM 77.0 °F - 68.0 °F 74% 29.93 in 10.0 mi SSW 10.4 mph - N/A Rain , Thunderstorm Light Thunderstorms and Rain
7:35 PM 77.0 °F - 66.2 °F 69% 29.93 in 10.0 mi South 10.4 mph - N/A Rain Light Rain
7:55 PM 75.2 °F - 64.4 °F 69% 29.93 in 10.0 mi South 10.4 mph - N/A   Light Drizzle
8:15 PM 77.0 °F - 64.4 °F 65% 29.93 in 10.0 mi SSE 8.1 mph - N/A Rain Light Rain
8:35 PM 75.2 °F - 64.4 °F 69% 29.92 in 10.0 mi SSE 11.5 mph - N/A   Clear
8:55 PM 77.0 °F - 62.6 °F 61% 29.92 in 10.0 mi SSE 13.8 mph - N/A   Clear
9:15 PM 78.8 °F - 62.6 °F 57% 29.93 in 10.0 mi South 12.7 mph 17.3 mph N/A   Clear
9:35 PM 77.0 °F - 62.6 °F 61% 29.93 in 10.0 mi South 12.7 mph - N/A   Clear
9:55 PM 77.0 °F - 62.6 °F 61% 29.93 in 10.0 mi South 10.4 mph - N/A   Clear
10:15 PM 73.4 °F - 64.4 °F 73% 29.95 in 10.0 mi SW 6.9 mph - N/A   Clear
10:35 PM 73.4 °F - 64.4 °F 73% 29.95 in 10.0 mi South 8.1 mph - N/A   Clear
10:55 PM 73.4 °F - 64.4 °F 73% 29.95 in 10.0 mi SSW 9.2 mph - N/A   Clear
11:15 PM 75.2 °F - 64.4 °F 69% 29.95 in 10.0 mi SW 10.4 mph - N/A   Clear
11:35 PM 75.2 °F - 64.4 °F 69% 29.94 in 10.0 mi SW 9.2 mph - N/A   Clear
11:55 PM 75.2 °F - 64.4 °F 69% 29.94 in 10.0 mi SSW 10.4 mph - N/A   Clear